Flag for Denmark Weather past 2 weeks in Kolding, Denmark

Now
46 °F

Scattered clouds.


Feels Like: 40 °F
Forecast: 39 / 52 °F
Wind: 14 mph from West

Location: Vamdrup

Current Time: Apr 28, 2015 at 1:20:18 PM

Latest Report: Apr 28, 2015 at 12:50 PM


Visibility: N/A

Pressure: 29.89 "Hg

Humidity: 53%

Dew point: 30 °F

Location of KoldingLocation

Historic Weather in Kolding — Graph

°F

Kolding temperature yesterday

Maximum temperature yesterday: 52 °F (at 12:50 PM)
Minimum temperature yesterday: 30 °F (at 4:20 AM)
Average temperature yesterday: 40 °F

Past Weeks' High & Low Weather Summary

 TemperatureHumidityPressure
High68 °F (Apr 20, 3:50 PM)100% (Apr 14, 7:20 AM)30.36 "Hg (Apr 14, 7:20 AM)
Low30 °F (Apr 27, 4:20 AM)24% (Apr 20, 3:50 PM)29.62 "Hg (Apr 25, 6:20 AM)
Average46 °F76%30.03 "Hg
* Reported Apr 13 11:50 AM — Apr 28 11:50 AM, Kolding, Weather by CustomWeather, © 2015

Note: Actual official high and low records may vary slightly from our data, if they occured in-between our weather recording intervals... More about our weather records

Advertising

Kolding weather history for previous 24 hours

 ConditionsComfort  
Time TempWeatherWind HumidityBarometerVisibility
11:50 AM
Tue, Apr 28
46 °FScattered clouds.12 mph53%29.89 "HgN/A
10:50 AM45 °FScattered clouds.9 mph57%29.89 "HgN/A
9:50 AM45 °FPassing clouds.8 mph57%29.86 "HgN/A
8:50 AM43 °FPassing clouds.6 mph71%29.86 "HgN/A
7:50 AM37 °FPassing clouds.1 mph93%29.86 "HgN/A
7:20 AM36 °FChilly.No wind100%29.86 "HgN/A
6:50 AM32 °FChilly.1 mph93%29.83 "HgN/A
6:20 AM30 °FChilly.2 mph100%29.83 "HgN/A
5:20 AM30 °FChilly.1 mph100%29.83 "HgN/A
4:50 AM30 °FChilly.1 mph93%29.83 "HgN/A
4:20 AM32 °FChilly.2 mph93%29.83 "HgN/A
3:50 AM30 °FChilly.2 mph93%29.83 "HgN/A
3:20 AM30 °FChilly.2 mph93%29.83 "HgN/A
2:50 AM34 °FChilly.2 mph93%29.83 "HgN/A
2:20 AM34 °FChilly.2 mph87%29.83 "HgN/A
1:50 AM36 °FChilly.3 mph81%29.83 "HgN/A
1:20 AM36 °FChilly.6 mph87%29.83 "HgN/A
12:50 AM37 °FChilly.7 mph81%29.83 "HgN/A
12:20 AM37 °FChilly.6 mph81%29.83 "HgN/A
11:50 PM
Mon, Apr 27
37 °FChilly.6 mph81%29.83 "HgN/A
11:20 PM37 °FChilly.6 mph75%29.83 "HgN/A
10:50 PM39 °FChilly.6 mph70%29.83 "HgN/A
10:20 PM39 °FChilly.6 mph70%29.80 "HgN/A
9:50 PM39 °FChilly.6 mph65%29.80 "HgN/A
9:20 PM39 °FChilly.6 mph65%29.80 "HgN/A
8:50 PM43 °FQuite cool.9 mph53%29.80 "HgN/A
8:20 PM45 °FQuite cool.10 mph53%29.80 "HgN/A
7:50 PM45 °FQuite cool.10 mph53%29.77 "HgN/A
7:20 PM45 °FQuite cool.12 mph53%29.77 "HgN/A
6:50 PM45 °FQuite cool.13 mph53%29.77 "HgN/A
6:20 PM45 °FQuite cool.13 mph53%29.77 "HgN/A
5:50 PM46 °FCool.15 mph50%29.77 "HgN/A
5:20 PM48 °FCool.15 mph46%29.77 "HgN/A
4:50 PM48 °FScattered clouds.16 mph46%29.74 "HgN/A
3:50 PM50 °FScattered clouds.15 mph47%29.74 "HgN/A
2:50 PM48 °FScattered clouds.17 mph54%29.74 "HgN/A
2:20 PM52 °FPartly sunny.15 mph50%29.74 "HgN/A
1:50 PM50 °FPartly sunny.16 mph58%29.74 "HgN/A
Weather by CustomWeather, © 2015

See weather overviewHow to use our weather pages